Weather Roundup
Issued by NWS Chicago, IL

Home | Current Version | Previous Version | Text Only | Print | Product List | Glossary Off
Versions: 1 2 3 4 5 6 7 8 9 10 11 12 13 14 15 16 17 18 19 20 21 22 23 24 25 26 27 28 29 30 31 32 33 34 35 36 37 38 39 40 41 42 43 44 45 46 47 48 49 50

490
NZUS59 KLOT 211212
HRRLOT

CHICAGO AREA WEATHER ROUNDUP
NATIONAL WEATHER SERVICE CHICAGO/ROMEOVILLE IL
600 AM CST SAT JAN 21 2017

NOTE: "FAIR" INDICATES FEW OR NO CLOUDS BELOW 12,000 FEET WITH NO
SIGNIFICANT WEATHER AND/OR OBSTRUCTIONS TO VISIBILITY.

* THESE STATIONS ARE NOT UNDER NWS QUALITY CONTROL. THEY ALSO MAY NOT
  REPORT WEATHER SUCH AS PRECIPITATION OR FOG.

ILZ005-006-012>014-019>023-211300-
NORTHEAST ILLINOIS

CITY           SKY/WX    TMP DP  RH WIND       PRES   REMARKS
OHARE          CLOUDY    47  47 100 SE7       29.53S FOG
6HR MIN TEMP:  42; 6HR MAX TEMP:  48; 6HR PCP: TRACE;

MIDWAY         CLOUDY    48  46  93 SE7       29.54F FOG
6HR MIN TEMP:  46; 6HR MAX TEMP:  48; 6HR PCP: TRACE;

AURORA         FOG       47  46  97 SE9       29.51F VSB 1/4
6HR MIN TEMP:  43; 6HR MAX TEMP:  48;

LANSING*       CLOUDY    48  48 100 S9        29.56S
JOLIET*        PTCLDY    47  47 100 S3        29.53F FOG
WAUKEGAN       FOG       40  40 100 SE5       29.53S VSB 1/4
6HR MIN TEMP:  38; 6HR MAX TEMP:  41; 6HR PCP:  0.01;

DUPAGE AIRPORT CLOUDY    49  46  90 S10       29.51F FOG
6HR MIN TEMP:  46; 6HR MAX TEMP:  49; 6HR PCP: TRACE;

WHEELING       CLOUDY    47  46  97 SE6       29.54F FOG
6HR MIN TEMP:  38; 6HR MAX TEMP:  47; 6HR PCP: TRACE;

KANKAKEE*      CLEAR     48  48  98 S13       29.55S
MORRIS*        FOG       44  44  98 S8        29.51S VSB 1/4
NORTHERLY ISL    N/A     39  39 100 NE3         N/A
$$

WIZ051-052-058>065-066-070>072-211300-
SOUTHEAST WISCONSIN

CITY           SKY/WX    TMP DP  RH WIND       PRES   REMARKS
MILWAUKEE      FOG       40  38  93 SE5       29.54F VSB 1/4
6HR MIN TEMP:  38; 6HR MAX TEMP:  40; 6HR PCP:  0.03;

KENOSHA*       FOG       43  43 100 SE6       29.53F VSB 1/4
RACINE*        FOG       41  39  93 S6        29.55F VSB 1/4
WAUKESHA       FOG       36  36 100 E5        29.53F VSB 1/4
WEST BEND      FOG       36  36 100 E3        29.53F VSB 1/4
$$

INZ001>003-010>013-019-020-211300-
NORTHWEST INDIANA

CITY           SKY/WX    TMP DP  RH WIND       PRES   REMARKS
GARY*          CLOUDY    50  48  93 S8        29.56F FOG
MICHIGAN CITY* NOT AVBL
RENSSELAER*    NOT AVBL
VALPARAISO     PTCLDY    49  48  97 SE9       29.58F FOG
$$

LMZ740>746-211300-
SOUTHERN LAKE MICHIGAN

STATION/POSITION TIME  SKY/WX   TEMP WIND        PRES    VSBY
                                AIR  DIR/SP/G
                 (UTC)          (F)  (DEG/KT/KT) (MB)    (MI)
HARRISON CRIB    1140            44  160/ 12/ 13   N/A
BURNHAM HARBOR   1200            40   60/  3/  4   N/A
CALUMET HARBOR   1148            49  170/  6/  9 1000.3F
BURNS HARBOR     1140            51  160/ 10/ 17 1002.0S
MICHIGAN CITY    NOT AVBL
$$

ABBREVIATIONS USED IN REMARKS
   TC - TEMPERATURE IN CELSIUS
  WCI - WIND CHILL INDEX
   HX - HEAT INDEX
  VSB - VISIBILITY
$$




USA.gov is the U.S. government's official web portal to all federal, state and local government web resources and services.